Regional Weather Roundup
Issued by NWS Cleveland, OH

Home | Current Version | Previous Version | Graphics & Text | Print | Product List | Glossary On
Versions: 1 2 3 4 5 6 7 8 9 10 11 12 13 14 15 16 17 18 19 20 21 22 23 24 25 26 27 28 29 30 31 32 33 34 35 36 37 38 39 40 41 42 43 44 45 46 47 48 49 50
000
ASUS41 KCLE 201410
RWRCLE
OHIO REGIONAL WEATHER ROUNDUP
NATIONAL WEATHER SERVICE CLEVELAND, OH
900 AM EST SAT DEC 20 2014

NOTE: "FAIR" INDICATES FEW OR NO CLOUDS BELOW 12,000 FEET WITH NO
SIGNIFICANT WEATHER AND/OR OBSTRUCTIONS TO VISIBILITY.

OHZ001>008-015>018-024>027-034-035-043-044-201500-
   NORTHWEST OHIO

CITY           SKY/WX    TMP DP  RH WIND       PRES   REMARKS
DEFIANCE       CLOUDY    27  24  89 CALM      30.30R FOG
FINDLAY        CLOUDY    30  23  75 S3        30.29R
TOLEDO EXPRESS CLOUDY    29  21  72 CALM      30.30R
TOLEDO EXEC    CLOUDY    30  21  69 S5        30.31R WCI  25
LIMA           CLOUDY    30  24  78 CALM      30.28R
$$

OHZ009>014-019>023-028>033-038-089-201500-
   NORTHEAST OHIO

CITY           SKY/WX    TMP DP  RH WIND       PRES   REMARKS
CLE-HOPKINS    CLOUDY    28  20  71 SW3       30.31S
CLE-LAKEFRONT  CLOUDY    31  22  69 CALM      30.29S
CUY CO. ARPT   CLOUDY    30  25  80 S6        30.29S WCI  24
LORAIN-ELYRIA  CLOUDY    28  22  78 SW3       30.29S
ASHTABULA      CLOUDY    29  21  72 CALM      30.29R
AKRON-CANTON   CLOUDY    28  19  69 E5        30.27S WCI  23
WOOSTER        CLOUDY    27  20  75 NE5       30.28R WCI  22
MANSFIELD      CLOUDY    28  21  75 CALM      30.26R
YOUNGSTOWN     CLOUDY    27  19  72 N5        30.27R WCI  22
$$

OHZ042-051>053-060>062-070>072-077>081-201500-
  SOUTHWEST OHIO

CITY           SKY/WX    TMP DP  RH WIND       PRES   REMARKS
CINC-COVINGTON LGT SNOW  30  23  74 CALM      30.29S
CINC-LUNKEN    CLOUDY    31  24  75 CALM      30.32R
HAMILTON       CLOUDY    32  25  75 CALM      30.32R
DAYTON         CLOUDY    30  23  75 CALM      30.29R
WRIGHT-PAT AFB CLOUDY    29  24  81 N2        30.29R
DAYTON GENERAL CLOUDY    30  24  78 CALM      30.28R
WILMINGTON     CLOUDY    28  23  81 E3        30.27S HAZE
$$

OHZ036-037-039>041-045>050-054>059-063>069-073>076-082>088-201500-
  CENTRAL AND SOUTHEAST OHIO

CITY           SKY/WX    TMP DP  RH WIND       PRES   REMARKS
COLUMBUS       CLOUDY    30  22  72 CALM      30.29R
OSU AIRPORT    CLOUDY    30  23  75 CALM      30.28R
BOLTON FIELD   CLOUDY    28  25  86 CALM      30.29R
RICKENBACK AFB CLOUDY    29  24  79 CALM      30.29S
NEWARK         CLOUDY    31  23  72 CALM      30.28R
MARION         CLOUDY    29  23  78 CALM      30.29R HAZE
LANCASTER      CLOUDY    42  25  50 W3        30.30R
ZANESVILLE     CLOUDY    29  22  75 CALM      30.28R
NEW PHILLY     CLOUDY    30  21  69 NE3       30.29S
$$


USA.gov is the U.S. government's official web portal to all federal, state and local government web resources and services.